Flag for U.S.A. Weather past 2 weeks in Lakewood, Colorado, U.S.A.

Now
36 °F

Passing clouds.


Feels Like: 29 °F
Forecast: 31 / 45 °F
Wind: 9 mph from Southeast

Location: Centennial Airport

Current Time: Jan 28, 2015 at 9:27:04 PM

Latest Report: Jan 28, 2015 at 8:53 PM


Visibility: 10 mi

Pressure: 30.27 "Hg

Humidity: 85%

Dew point: 32 °F

Location of LakewoodLocation

Historic Weather in Lakewood — Graph

°F

Lakewood temperature yesterday

Maximum temperature yesterday: 72 °F (at 1:53 PM)
Minimum temperature yesterday: 43 °F (at 9:53 PM)
Average temperature yesterday: 54 °F

Past Weeks' High & Low Weather Summary

 TemperatureHumidityPressure
High72 °F (Jan 27, 1:53 PM)100% (Jan 20, 3:01 AM)30.51 "Hg (Jan 20, 3:01 AM)
Low7 °F (Jan 22, 3:53 AM)11% (Jan 17, 1:53 PM)29.82 "Hg (Jan 16, 3:53 PM)
Average39 °F50%30.17 "Hg
* Reported Jan 13 7:53 PM — Jan 28 7:53 PM, Lakewood, Weather by CustomWeather, © 2014

Note: Actual official high and low records may vary slightly from our data, if they occured in-between our weather recording intervals... More about our weather records

Advertising

Lakewood weather history for previous 24 hours

 ConditionsComfort  
Time TempWeatherWind HumidityBarometerVisibility
7:53 PM
Jan 28
39 °FPassing clouds.12 mph76%30.27 "Hg10 mi
6:53 PM45 °FPassing clouds.8 mph42%30.20 "Hg10 mi
5:53 PM48 °FPassing clouds.7 mph37%30.14 "Hg10 mi
4:53 PM53 °FPassing clouds.7 mph26%30.09 "Hg10 mi
3:53 PM55 °FPassing clouds.12 mph23%30.04 "Hg10 mi
2:53 PM57 °FPassing clouds.15 mph21%30.01 "Hg10 mi
1:53 PM57 °FPassing clouds.22 mph22%30.00 "Hg10 mi
12:53 PM58 °FPassing clouds.20 mph20%30.00 "Hg10 mi
11:53 AM57 °FPassing clouds.18 mph21%30.00 "Hg10 mi
10:53 AM55 °FPassing clouds.10 mph24%30.02 "Hg10 mi
9:53 AM52 °FPassing clouds.10 mph27%30.04 "Hg10 mi
8:53 AM49 °FPassing clouds.No wind36%30.04 "Hg10 mi
7:53 AM38 °FPassing clouds.3 mph58%30.05 "Hg10 mi
6:53 AM38 °FPassing clouds.6 mph53%30.02 "Hg10 mi
5:53 AM41 °FPassing clouds.6 mph45%30.00 "Hg10 mi
4:53 AM38 °FPassing clouds.7 mph55%29.95 "Hg10 mi
3:53 AM40 °FPassing clouds.7 mph49%29.91 "Hg10 mi
2:53 AM43 °FPassing clouds.3 mph40%29.89 "Hg10 mi
1:53 AM41 °FPassing clouds.8 mph47%29.90 "Hg10 mi
12:53 AM38 °FPassing clouds.No wind58%29.92 "Hg10 mi
11:53 PM
Jan 27
43 °FClear.6 mph45%29.91 "Hg10 mi
10:53 PM44 °FClear.6 mph43%29.92 "Hg10 mi
9:53 PM43 °FClear.No wind49%29.95 "Hg10 mi
Weather by CustomWeather, © 2014

See weather overviewHow to use our weather pages